Weather reports worldwide

Advertisment
Medina De Pomar, Spain (8063): temperature & dewpoint: 13.01.2021 06:00:00 - 19.01.2021 06:00:00 (CET)Medina De Pomar, Spain (8063): wind speed & gusts: 13.01.2021 06:00:00 - 19.01.2021 06:00:00 (CET)Medina De Pomar, Spain (8063): wind direction: 13.01.2021 06:00:00 - 19.01.2021 06:00:00 (CET)Medina De Pomar, Spain (8063): reduced air pressure: 13.01.2021 06:00:00 - 19.01.2021 06:00:00 (CET)Medina De Pomar, Spain (8063): visibility: 13.01.2021 06:00:00 - 19.01.2021 06:00:00 (CET)Medina De Pomar, Spain (8063): sunshine duration: 13.01.2021 06:00:00 - 19.01.2021 06:00:00 (CET)Medina De Pomar, Spain (8063): precipitation: 13.01.2021 06:00:00 - 19.01.2021 06:00:00 (CET)
Date & Time tt [°C] td [°C] ff [km/h] ff [kn] fx [km/h] fx [kn] dd ppp [hPa] vv [km] sd [min] rr [mm]
19.01.2021 06:00:00 - - - - - - - - - - -
19.01.2021 05:00:00 -0,5 -1,4 2 1 8 5 N 1027,8 0,3 0 0,0
19.01.2021 04:00:00 -0,1 -1,2 3 2 14 7 NNE 1028,2 0,1 0 0,0
19.01.2021 03:00:00 -0,6 -1,6 1 1 5 3 E - - 0 0,0
19.01.2021 02:00:00 -0,9 -2,0 1 1 4 2 N 1029,3 5 0 0,0
19.01.2021 01:00:00 -0,3 -1,4 1 1 4 2 SSE 1029,7 9 0 -
19.01.2021 00:00:00 0,8 -0,5 1 1 13 7 S 1029,7 20 0 0,0
18.01.2021 23:00:00 0,2 -1,2 1 1 4 2 NNE 1029,8 20 0 0,0
18.01.2021 22:00:00 1,1 -0,5 1 1 8 5 E 1029,4 20 0 0,0
18.01.2021 21:00:00 2,3 0,4 2 1 16 9 NNE 1029,1 20 0 0,0
18.01.2021 20:00:00 3,9 1,7 3 2 7 4 NNE 1028,5 20 0 0,0
18.01.2021 19:00:00 6,4 2,9 2 1 5 3 S 1027,6 20 0 -
18.01.2021 18:00:00 9,7 4,3 1 1 5 3 NNE 1026,5 20 13 0,0
18.01.2021 17:00:00 11,3 4,3 2 1 10 5 S 1026,2 20 60 0,0
18.01.2021 16:00:00 11,0 4,3 3 2 9 5 SW 1026,7 20 60 0,0
18.01.2021 15:00:00 10,5 4,1 5 3 11 6 SSW 1027,3 20 51 0,0
18.01.2021 14:00:00 9,5 4,5 7 4 22 12 SW 1028,3 20 42 0,0
18.01.2021 13:00:00 6,8 3,9 4 2 10 6 NW 1029,9 20 3 -
18.01.2021 12:00:00 5,8 3,8 5 3 9 5 W 1030,8 20 15 0,0
18.01.2021 11:00:00 4,5 3,6 1 1 7 4 ESE 1031,2 20 41 0,0
18.01.2021 10:00:00 2,4 1,5 3 2 9 5 SW 1031,6 17 0 0,0
18.01.2021 09:00:00 2,1 1,1 3 2 9 5 SW 1031,3 6 0 0,0
18.01.2021 08:00:00 1,9 0,9 1 1 4 2 SE 1031,4 14 0 0,0
18.01.2021 07:00:00 2,9 1,9 3 1 6 3 NNE 1031,0 20 0 -
18.01.2021 06:00:00 2,9 1,9 1 1 9 5 W 1030,7 12 0 0,0
18.01.2021 05:00:00 3,1 2,1 3 2 6 3 N 1030,9 8 0 0,0
18.01.2021 04:00:00 3,3 2,3 3 2 9 5 E 1031,3 3,4 0 0,0
18.01.2021 03:00:00 3,1 2,1 2 1 8 4 NNW 1031,2 12 0 0,0
18.01.2021 02:00:00 2,6 1,5 3 1 12 7 NNE 1031,6 0,2 0 0,0
18.01.2021 01:00:00 3,1 1,7 1 1 16 9 NE 1032,0 20 0 -
18.01.2021 00:00:00 3,5 2,1 1 1 7 4 W 1031,9 17 0 0,0
17.01.2021 23:00:00 3,8 2,3 3 2 7 4 N 1031,9 18 0 0,0
17.01.2021 22:00:00 4,5 2,9 3 2 13 7 NNE 1031,5 20 0 0,0
17.01.2021 21:00:00 5,0 3,2 3 2 10 5 N 1031,4 20 0 0,0
17.01.2021 20:00:00 6,0 4,1 6 3 10 6 NE 1031,2 20 0 0,0
17.01.2021 19:00:00 6,7 3,8 1 1 11 6 ESE 1031,0 20 0 -
17.01.2021 18:00:00 7,6 3,9 4 2 9 5 N 1030,5 20 3 0,0
17.01.2021 17:00:00 8,4 3,8 2 1 8 5 NE 1030,0 20 10 0,0
17.01.2021 16:00:00 7,6 2,9 3 2 8 4 NNE 1030,3 20 16 0,0
17.01.2021 15:00:00 6,4 2,1 3 2 14 8 NW 1030,8 20 2 0,0
17.01.2021 14:00:00 6,2 1,9 1 1 9 5 ENE 1031,4 20 15 0,0
17.01.2021 13:00:00 5,2 0,9 7 4 11 6 SE 1032,6 20 47 -
17.01.2021 12:00:00 2,8 0,0 6 3 11 6 SE 1034,0 20 60 0,0
17.01.2021 11:00:00 0,0 -1,0 3 2 11 6 SE 1034,8 20 8 0,0
17.01.2021 10:00:00 -1,3 -2,2 4 2 8 4 S 1034,6 20 0 0,0
17.01.2021 09:00:00 -1,9 -2,7 3 2 6 3 WSW 1034,2 20 0 0,0
17.01.2021 08:00:00 -3,2 -4,2 4 2 10 6 SSE 1034,3 20 0 0,0
17.01.2021 07:00:00 -3,2 -4,2 6 3 10 6 SSE 1033,9 20 0 -
17.01.2021 06:00:00 -3,3 -4,2 5 3 8 4 SSE 1033,7 20 0 0,0
17.01.2021 05:00:00 -3,0 -3,9 2 1 5 3 S 1034,0 0,4 0 0,0
17.01.2021 04:00:00 -2,9 -3,9 0 0 3 2 N 1033,9 11 0 0,0
17.01.2021 03:00:00 -2,5 -3,3 2 1 6 3 ESE 1033,9 0,7 0 0,0
17.01.2021 02:00:00 -2,1 -3,0 2 1 7 4 ESE 1034,1 0,6 0 0,0
17.01.2021 01:00:00 -1,7 -2,5 2 1 6 4 ESE 1034,2 0,2 0 -
17.01.2021 00:00:00 -1,2 -2,0 3 2 10 5 E 1034,3 0,2 0 0,0
16.01.2021 23:00:00 -0,9 -1,7 5 3 10 6 SE 1034,2 0,3 0 0,0
16.01.2021 22:00:00 -0,7 -1,7 6 3 9 5 SSE 1033,9 0,4 0 0,0
16.01.2021 21:00:00 -0,2 -1,2 3 2 7 4 ENE 1033,8 0,2 0 0,0
16.01.2021 20:00:00 0,1 -1,2 1 1 6 4 NNW 1033,7 0,5 0 0,0
16.01.2021 19:00:00 0,5 -1,0 2 1 13 7 SSE 1033,0 0,3 0 -
16.01.2021 18:00:00 1,5 -0,5 4 2 9 5 S 1032,4 20 2 0,0
16.01.2021 17:00:00 2,0 -0,5 4 2 9 5 NE 1032,2 20 50 0,0
16.01.2021 16:00:00 2,0 -0,7 4 2 8 4 SE 1032,2 20 26 0,0
16.01.2021 15:00:00 1,1 -1,2 3 2 9 5 SSW 1032,7 20 25 0,0
16.01.2021 14:00:00 0,5 -1,4 4 2 9 5 SSW 1033,4 20 0 0,0
16.01.2021 13:00:00 -0,3 -1,2 2 1 6 4 E 1034,4 20 0 -
16.01.2021 12:00:00 -1,2 -2,2 2 1 7 4 W 1035,2 7 0 0,0
16.01.2021 11:00:00 -1,5 -2,5 3 2 6 3 WNW 1035,2 1,5 0 0,0
16.01.2021 10:00:00 -1,8 -2,7 2 1 7 4 W 1034,9 0,9 0 0,0
16.01.2021 09:00:00 -1,9 -3,0 2 1 5 3 NW 1034,6 11 0 0,0
16.01.2021 08:00:00 -2,4 -3,3 0 0 5 3 N 1034,5 20 0 0,0
16.01.2021 07:00:00 -3,3 -4,2 2 1 6 4 E 1034,5 20 0 -
16.01.2021 06:00:00 -3,7 -4,8 2 1 6 3 NNE 1034,4 20 0 0,0
16.01.2021 05:00:00 -3,4 -4,5 2 1 8 4 NNE 1034,5 20 0 0,0
16.01.2021 04:00:00 -2,5 -3,6 5 3 8 5 NNE 1034,3 20 0 0,0
16.01.2021 03:00:00 -2,6 -3,6 1 1 13 7 NE 1034,1 17 0 0,0
16.01.2021 02:00:00 -2,0 -3,0 2 1 5 3 NE 1034,1 15 0 0,0
16.01.2021 01:00:00 -1,8 -3,0 0 0 6 3 N 1034,3 5 0 -
16.01.2021 00:00:00 -0,8 -2,2 1 1 8 4 SSE 1034,4 11 0 0,0
15.01.2021 23:00:00 -0,4 -2,0 1 1 5 3 NW 1034,1 9 0 0,0
15.01.2021 22:00:00 1,2 -1,0 2 1 8 4 N 1033,6 14 0 0,0
15.01.2021 21:00:00 2,2 0,2 3 2 11 6 WNW 1033,2 20 0 0,0
15.01.2021 20:00:00 2,3 -0,7 2 1 12 6 SW 1033,2 18 0 0,0
15.01.2021 19:00:00 4,9 0,0 6 3 10 6 N 1032,0 20 0 -
15.01.2021 18:00:00 6,7 0,2 3 1 14 8 N 1031,1 20 9 0,0
15.01.2021 17:00:00 8,9 1,1 3 2 10 5 SW 1030,5 20 48 0,0
15.01.2021 16:00:00 8,2 0,6 3 2 16 8 NW 1030,6 20 8 0,0
15.01.2021 15:00:00 9,9 1,3 5 3 15 8 E 1030,1 20 60 0,0
15.01.2021 14:00:00 6,3 3,6 2 1 18 10 SW 1031,9 20 16 0,0
15.01.2021 13:00:00 5,5 2,9 2 1 5 3 WSW 1032,8 20 53 -
15.01.2021 12:00:00 2,9 1,9 2 1 9 5 SE 1034,0 20 17 0,0
15.01.2021 11:00:00 0,8 0,0 3 2 16 9 SSE 1034,3 10 0 0,0
15.01.2021 10:00:00 -0,2 -1,0 1 1 5 3 SE 1034,1 9 0 0,0
15.01.2021 09:00:00 -0,7 -1,4 1 1 5 3 S 1033,8 6 0 0,0
15.01.2021 08:00:00 -0,9 -1,7 1 1 5 3 NNW 1033,6 7 0 0,0
15.01.2021 07:00:00 -0,7 -1,4 3 1 8 5 SE 1033,1 6 0 -
15.01.2021 06:00:00 -1,2 -2,0 1 1 7 4 WNW 1033,4 4,2 0 0,0
15.01.2021 05:00:00 -1,3 -2,2 3 2 9 5 S 1033,4 9 0 0,0
15.01.2021 04:00:00 -1,0 -2,0 3 1 6 4 S 1033,7 5 0 0,0
15.01.2021 03:00:00 -1,3 -2,2 3 2 15 8 SE 1033,2 0,2 0 0,0
15.01.2021 02:00:00 -1,3 -2,2 3 1 7 4 SSE 1033,3 0,1 0 0,0
15.01.2021 01:00:00 -0,3 -1,2 0 0 4 2 N 1033,1 1,9 0 -
15.01.2021 00:00:00 0,1 -1,0 2 1 5 3 ESE 1033,0 1,7 0 0,0
14.01.2021 23:00:00 0,7 -0,5 1 1 5 3 SSE 1033,0 2,4 0 0,0
14.01.2021 22:00:00 1,1 -0,3 1 1 6 4 S 1032,4 3,3 0 0,0
14.01.2021 21:00:00 1,1 -0,3 1 1 4 2 SE 1032,1 3,5 0 0,0
14.01.2021 20:00:00 1,2 -0,5 1 1 5 3 WNW 1032,2 5 0 0,0
14.01.2021 19:00:00 1,4 -0,7 1 1 4 2 N 1031,7 11 0 -
14.01.2021 18:00:00 2,0 -0,7 2 1 7 4 WSW 1031,9 20 0 0,0
14.01.2021 17:00:00 2,4 -0,7 3 2 8 5 E 1031,8 19 12 0,0
14.01.2021 16:00:00 2,1 -1,0 5 3 9 5 SSE 1031,8 20 6 0,0
14.01.2021 15:00:00 1,5 -1,2 3 2 16 9 ESE 1032,2 13 0 0,0
14.01.2021 14:00:00 0,6 -1,4 2 1 9 5 E 1033,2 11 0 0,0
14.01.2021 13:00:00 -0,8 -2,2 5 3 8 4 SE 1034,5 10 0 -
14.01.2021 12:00:00 -2,0 -3,0 1 1 4 2 W 1035,6 9 0 0,0
14.01.2021 11:00:00 -3,2 -4,2 2 1 11 6 SSW 1035,8 8 0 0,0
14.01.2021 10:00:00 -3,7 -4,8 1 1 4 2 WSW 1035,6 3,1 0 0,0
14.01.2021 09:00:00 -3,9 -4,8 0 0 14 8 N 1035,5 1,8 0 0,0
14.01.2021 08:00:00 -3,9 -4,9 1 1 7 4 WNW - - 0 0,0
14.01.2021 07:00:00 -4,0 -5,1 0 0 4 2 N 1035,2 0,4 0 -
14.01.2021 06:00:00 -4,2 -5,1 1 1 4 2 ESE 1035,5 0,3 0 0,0
14.01.2021 05:00:00 -4,3 -5,4 3 1 5 3 SE 1035,6 0,3 0 0,0
14.01.2021 04:00:00 -4,6 -5,7 0 0 4 2 N 1036,0 0,2 0 0,0
14.01.2021 03:00:00 -5,0 -6,1 2 1 6 3 ENE - - 0 0,0
14.01.2021 02:00:00 -5,5 -6,7 3 2 5 3 NE 1036,1 20 0 0,0
14.01.2021 01:00:00 -5,3 -6,4 1 1 7 4 NE 1036,5 20 0 -
14.01.2021 00:00:00 -4,6 -5,7 2 1 5 3 NNE 1036,7 20 0 0,0
13.01.2021 23:00:00 -4,1 -5,4 1 1 5 3 NNE 1036,4 15 0 0,0
13.01.2021 22:00:00 -3,3 -4,8 1 1 7 4 NNE 1035,8 9 0 0,0
13.01.2021 21:00:00 -2,6 -4,2 2 1 4 2 NE 1035,3 8 0 0,0
13.01.2021 20:00:00 -1,6 -3,6 0 0 3 2 N 1034,9 8 0 0,0
13.01.2021 19:00:00 0,1 -2,7 0 0 4 2 N 1034,1 11 0 -
13.01.2021 18:00:00 2,9 -1,2 2 1 14 8 W 1033,1 20 9 0,0
13.01.2021 17:00:00 4,8 -0,7 2 1 6 3 WSW 1032,7 20 60 0,0
13.01.2021 16:00:00 4,7 -0,3 1 1 - - SSE 1032,9 16 - -
13.01.2021 15:00:00 2,1 -2,0 3 2 9 5 SW 1033,6 15 60 0,0
13.01.2021 14:00:00 0,5 -2,0 3 2 6 4 WSW 1035,0 11 35 0,0
13.01.2021 13:00:00 -1,5 -3,3 4 2 13 7 W 1036,3 3,0 19 -
13.01.2021 12:00:00 -2,3 -3,6 2 1 6 4 SE 1037,3 6 22 0,0
13.01.2021 11:00:00 -3,5 -4,5 2 1 5 3 SW 1037,6 1,8 0 0,0
13.01.2021 10:00:00 -4,4 -5,4 2 1 7 4 WNW 1037,6 1,0 0 0,0
13.01.2021 09:00:00 -4,5 -5,4 2 1 5 3 NE 1037,0 0,3 0 0,0
13.01.2021 08:00:00 -4,6 -5,7 3 1 5 3 E 1037,0 0,3 0 0,0
13.01.2021 07:00:00 -5,3 -6,4 2 1 11 6 NNE 1036,8 4,1 0 -
13.01.2021 06:00:00 -5,5 -6,7 3 2 8 4 NE 1036,9 13 0 0,0

tt = temperature
td = dewpoint
ff = wind speed
fx = gusts
dd = wind direction
ppp = reduced air pressure
vv = visibility
sd = sunshine duration
rr = precipitation

Next stations